Date String (YYYY-MM-DD hh:mm:ss) UTC,Instrument flags,Ambient pressure (hPa),Sample flow (lpm),Bypass flow (lpm),Sample temperature (°C),Ambient temperature (°C),ASC tube jacket temperature (°C),LED temperature (°C),Box temperature (°C),Sample RH (%),Span deviation,Mass concentration (μg/m³),Mass concentration (μg/m³),Mass concentration (μg/m³)
DateTimeUTC,F1_M11,P_M11,Q1_M11,Q2_M11,T1_M11,T2_M11,T3_M11,T4_M11,T5_M11,U1_M11,ZSPAN_M11,X0_M11,X2_M11,X1_M11
2022-03-29 19:00:00,,0810.6,5.01,0.00,27.4,26.5,00.0,36.3,29.2,21.5,0000.0,0005.34,0003.09,0002.06
2022-03-29 19:01:00,,0810.6,4.99,0.00,27.4,26.5,00.0,36.3,29.2,21.4,0000.0,0005.41,0003.11,0002.08
2022-03-29 19:02:00,,0810.6,5.00,0.00,27.4,26.5,00.0,36.3,29.2,21.5,0000.0,0005.36,0003.10,0002.10
2022-03-29 19:03:00,,0810.6,5.01,0.00,27.4,26.5,00.0,36.3,29.2,21.7,0000.0,0005.16,0003.03,0002.11
2022-03-29 19:04:00,,0810.6,5.00,0.00,27.4,26.5,00.0,36.3,29.2,21.8,0000.0,0005.05,0003.02,0002.11
2022-03-29 19:05:00,,0810.6,4.99,0.00,27.4,26.5,00.0,36.3,29.2,21.7,0000.0,0005.03,0003.04,0002.14
2022-03-29 19:06:00,,0810.6,5.01,0.00,27.4,26.5,00.0,36.3,29.2,21.8,0000.0,0004.87,0003.02,0002.15
2022-03-29 19:07:00,,0810.7,5.00,0.00,27.4,26.5,00.0,36.3,29.2,21.9,0000.0,0004.73,0002.97,0002.15
2022-03-29 19:08:00,,0810.6,4.99,0.00,27.4,26.5,00.0,36.4,29.2,22.1,0000.0,0004.88,0003.01,0002.14
2022-03-29 19:09:00,,0810.6,5.02,0.00,27.4,26.5,00.0,36.4,29.2,22.0,0000.0,0005.00,0003.04,0002.13
2022-03-29 19:10:00,,0810.7,4.99,0.00,27.4,26.5,00.0,36.4,29.2,22.1,0000.0,0004.99,0003.02,0002.10
2022-03-29 19:11:00,,0810.6,5.00,0.00,27.4,26.5,00.0,36.4,29.2,22.0,0000.0,0005.04,0003.01,0002.08
2022-03-29 19:12:00,,0810.6,5.01,0.00,27.4,26.5,00.0,36.4,29.2,21.7,0000.0,0005.12,0003.02,0002.06
2022-03-29 19:13:00,,0810.6,4.99,0.00,27.4,26.6,00.0,36.4,29.3,21.5,0000.0,0005.00,0002.96,0002.02
2022-03-29 19:14:00,,0810.6,5.01,0.00,27.5,26.6,00.0,36.4,29.3,21.2,0000.0,0004.91,0002.93,0001.99
2022-03-29 19:15:00,,0810.6,5.00,0.00,27.5,26.6,00.0,36.4,29.3,21.3,0000.0,0004.93,0002.89,0001.97
2022-03-29 19:16:00,,0810.6,5.01,0.00,27.5,26.6,00.0,36.4,29.3,21.4,0000.0,0004.98,0002.88,0001.95
2022-03-29 19:17:00,,0810.6,5.02,0.00,27.5,26.7,00.0,36.4,29.3,21.5,0000.0,0005.03,0002.86,0001.94
2022-03-29 19:18:00,,0810.6,4.99,0.00,27.5,26.6,00.0,36.4,29.3,21.6,0000.0,0005.05,0002.83,0001.93
2022-03-29 19:19:00,,0810.6,5.00,0.00,27.5,26.7,00.0,36.4,29.3,21.5,0000.0,0004.98,0002.83,0001.94
2022-03-29 19:20:00,,0810.6,5.01,0.00,27.5,26.7,00.0,36.4,29.3,21.4,0000.0,0004.87,0002.86,0001.94
2022-03-29 19:21:00,,0810.5,4.98,0.00,27.5,26.7,00.0,36.4,29.3,21.5,0000.0,0004.85,0002.87,0001.94
2022-03-29 19:22:00,,0810.5,5.02,0.00,27.5,26.7,00.0,36.4,29.3,21.7,0000.0,0004.72,0002.82,0001.92
2022-03-29 19:23:00,,0810.5,5.00,0.00,27.5,26.7,00.0,36.4,29.3,22.2,0000.0,0004.84,0002.86,0001.93
2022-03-29 19:24:00,,0810.5,4.99,0.00,27.5,26.7,00.0,36.4,29.3,22.1,0000.0,0005.14,0002.98,0001.97
2022-03-29 19:25:00,,0810.5,5.00,0.00,27.5,26.7,00.0,36.5,29.3,22.1,0000.0,0005.41,0003.08,0001.99
2022-03-29 19:26:00,,0810.6,4.99,0.00,27.5,26.7,00.0,36.5,29.4,22.2,0000.0,0005.42,0003.12,0002.01
2022-03-29 19:27:00,,0810.5,5.01,0.00,27.5,26.7,00.0,36.5,29.3,22.4,0000.0,0005.68,0003.17,0002.05
2022-03-29 19:28:00,,0810.6,5.01,0.00,27.6,26.7,00.0,36.5,29.4,22.6,0000.0,0005.96,0003.23,0002.07
2022-03-29 19:29:00,,0810.5,4.99,0.00,27.6,26.7,00.0,36.5,29.4,23.0,0000.0,0006.01,0003.26,0002.10
2022-03-29 19:30:00,,0810.5,5.00,0.00,27.6,26.7,00.0,36.5,29.4,23.4,0000.0,0005.97,0003.25,0002.13
2022-03-29 19:31:00,,0810.5,5.01,0.00,27.6,26.7,00.0,36.5,29.4,24.1,0000.0,0005.86,0003.21,0002.15
2022-03-29 19:32:00,,0810.5,4.99,0.00,27.6,26.7,00.0,36.5,29.4,22.8,0000.0,0005.71,0003.19,0002.17
2022-03-29 19:33:00,,0810.5,5.00,0.00,27.6,26.7,00.0,36.5,29.4,22.8,0000.0,0005.76,0003.21,0002.20
2022-03-29 19:34:00,,0810.4,5.01,0.00,27.6,26.8,00.0,36.5,29.4,22.5,0000.0,0005.71,0003.21,0002.21
2022-03-29 19:35:00,,0810.4,4.99,0.00,27.6,26.8,00.0,36.5,29.4,22.5,0000.0,0005.59,0003.18,0002.21
2022-03-29 19:36:00,,0810.4,5.00,0.00,27.6,26.8,00.0,36.6,29.4,22.5,0000.0,0005.60,0003.16,0002.22
2022-03-29 19:37:00,,0810.3,5.01,0.00,27.6,26.8,00.0,36.6,29.5,22.5,0000.0,0005.62,0003.16,0002.23
2022-03-29 19:38:00,,0810.2,4.99,0.00,27.6,26.8,00.0,36.6,29.5,21.9,0000.0,0005.50,0003.13,0002.23
2022-03-29 19:39:00,,0810.3,5.01,0.00,27.6,26.8,00.0,36.6,29.5,21.8,0000.0,0005.32,0003.10,0002.22
2022-03-29 19:40:00,,0810.3,4.99,0.00,27.6,26.8,00.0,36.6,29.4,22.0,0000.0,0005.26,0003.09,0002.22
2022-03-29 19:41:00,,0810.3,5.02,0.00,27.6,26.8,00.0,36.6,29.4,22.6,0000.0,0005.25,0003.07,0002.20
2022-03-29 19:42:00,,0810.3,4.99,0.00,27.6,26.8,00.0,36.6,29.4,22.3,0000.0,0005.35,0003.10,0002.19
2022-03-29 19:43:00,,0810.3,5.01,0.00,27.6,26.8,00.0,36.6,29.4,22.2,0000.0,0005.37,0003.11,0002.19
2022-03-29 19:44:00,,0810.3,4.99,0.00,27.6,26.8,00.0,36.6,29.4,22.2,0000.0,0005.47,0003.14,0002.19
2022-03-29 19:45:00,,0810.3,5.01,0.00,27.7,26.8,00.0,36.6,29.5,21.7,0000.0,0005.39,0003.12,0002.16
2022-03-29 19:46:00,,0810.3,5.00,0.00,27.7,26.8,00.0,36.6,29.5,20.5,0000.0,0005.27,0003.07,0002.09
2022-03-29 19:47:00,,0810.3,4.99,0.00,27.7,26.8,00.0,36.6,29.5,19.9,0000.0,0005.57,0003.04,0002.03
2022-03-29 19:48:00,,0810.2,5.02,0.00,27.7,26.8,00.0,36.6,29.5,19.5,0000.0,0005.44,0003.00,0001.98
2022-03-29 19:49:00,,0810.2,4.98,0.00,27.6,26.8,00.0,36.6,29.5,19.7,0000.0,0005.23,0002.92,0001.92
2022-03-29 19:50:00,,0810.2,5.00,0.00,27.7,26.8,00.0,36.6,29.5,21.6,0000.0,0005.19,0002.83,0001.88
2022-03-29 19:51:00,,0810.2,5.00,0.00,27.6,26.8,00.0,36.6,29.4,22.0,0000.0,0005.94,0002.81,0001.88
2022-03-29 19:52:00,,0810.2,5.01,0.00,27.6,26.7,00.0,36.6,29.4,22.5,0000.0,0006.12,0002.78,0001.87
2022-03-29 19:53:00,,0810.2,5.00,0.00,27.6,26.7,00.0,36.6,29.4,22.7,0000.0,0005.99,0002.73,0001.86
2022-03-29 19:54:00,,0810.2,4.98,0.00,27.6,26.7,00.0,36.6,29.3,22.6,0000.0,0006.05,0002.76,0001.86
2022-03-29 19:55:00,,0810.1,5.02,0.00,27.5,26.6,00.0,36.6,29.3,22.7,0000.0,0006.02,0002.74,0001.87
2022-03-29 19:56:00,,0810.1,4.99,0.00,27.5,26.6,00.0,36.6,29.3,22.7,0000.0,0006.12,0002.78,0001.91
2022-03-29 19:57:00,,0810.0,4.99,0.00,27.5,26.6,00.0,36.6,29.2,22.4,0000.0,0006.12,0002.82,0001.95
2022-03-29 19:58:00,,0810.0,5.01,0.00,27.5,26.6,00.0,36.5,29.2,22.3,0000.0,0005.73,0002.83,0001.98
2022-03-29 19:59:00,,0810.0,4.99,0.00,27.5,26.5,00.0,36.5,29.2,21.8,0000.0,0005.64,0002.81,0002.00
